Wind_Speed
14 14 15 14 17 19 18 16 15 15 12 11 9 11 11 8 9 8 10 13 15 18 19 20 24 28 32 34 37 39 37 36 37 36 37 38 38 37 37 37 38 39 41 43
17 16 15 16 18 19 16 17 19 17 12 13 11 12 15 15 13 14 13 17 20 22 24 27 30 33 36 39 41 43 42 40 36 35 36 39 41 41 40 39 42 44 44 44
18 16 16 18 18 18 18 20 19 16 14 16 16 14 17 19 19 21 19 21 22 23 27 29 33 37 41 43 45 47 43 39 34 34 36 39 41 42 44 45 44 45 48 50
18 17 18 19 19 20 19 18 19 19 20 20 21 20 19 21 23 24 24 25 27 27 30 33 36 40 44 46 47 43 41 40 37 35 34 34 35 37 38 40 42 45 48 51
20 20 20 21 20 21 20 21 20 23 23 22 22 28 21 23 24 24 26 28 29 31 34 37 39 40 41 42 44 46 47 43 40 37 34 33 33 35 37 39 41 43 45 48
24 23 22 21 21 23 23 22 20 21 23 24 26 30 28 24 25 27 26 27 30 33 36 39 40 40 39 40 45 48 47 46 41 38 37 37 38 39 41 43 44 46 47 48
25 22 21 22 23 24 25 24 23 24 25 24 28 30 28 25 26 27 27 28 32 36 38 40 40 41 37 40 45 46 48 47 43 41 40 43 43 43 44 48 49 51 50 51
25 22 22 23 25 25 26 25 25 27 27 26 28 32 29 27 29 29 29 30 36 38 38 39 39 38 40 47 49 51 49 48 46 45 45 47 48 49 51 54 58 60 61 57
26 24 22 24 25 26 28 27 27 27 28 28 28 30 30 29 31 31 31 32 36 38 41 40 36 36 40 46 50 52 51 49 50 51 52 52 53 56 58 62 65 67 66 65
26 25 25 26 27 27 29 28 27 28 31 28 28 29 26 29 33 35 33 36 39 38 42 41 39 38 44 48 52 53 52 53 54 54 56 57 59 62 65 69 70 67 67 62
27 24 21 25 22 27 30 29 28 28 30 31 31 27 25 31 36 34 35 38 39 40 38 36 38 38 47 49 53 56 56 58 59 60 60 60 61 64 66 68 68 64 46 45
24 26 23 19 21 27 31 31 33 32 31 33 31 29 25 32 35 35 39 41 41 37 30 35 39 44 50 51 54 58 58 59 58 57 56 56 57 61 65 66 53 38 37 36
26 28 27 24 23 26 29 32 33 34 32 31 34 32 31 30 33 38 40 42 41 34 39 39 42 47 52 53 56 56 57 58 57 56 57 57 59 59 58 47 41 39 36 30
31 30 28 28 27 26 31 34 35 34 33 34 34 34 32 34 38 38 40 38 33 37 45 44 40 51 57 52 54 55 57 57 56 56 56 55 55 51 41 38 36 33 29 23
37 33 32 32 31 32 35 36 36 37 36 37 35 35 35 37 38 37 36 34 35 42 46 42 44 53 51 49 53 55 57 57 56 55 53 54 49 35 34 31 30 26 24 21
38 38 36 33 33 35 35 33 34 36 39 39 38 37 37 36 33 35 33 34 38 39 40 39 45 50 48 50 52 53 55 55 54 56 53 43 28 27 25 25 23 21 19 16
43 41 37 35 33 37 34 32 33 37 41 40 39 37 37 32 35 34 29 36 40 41 40 43 48 52 46 48 51 52 54 53 56 43 31 21 21 20 23 22 14 19 17 16
49 45 44 38 35 37 33 35 36 39 42 42 40 36 30 30 31 32 36 38 40 38 42 43 52 48 44 46 49 51 51 52 45 38 26 24 18 15 19 23 15 13 14 19
31 32 34 35 33 33 34 31 33 37 40 34 28 23 21 26 29 31 34 39 37 41 42 49 50 44 42 45 47 49 47 50 40 29 27 18 14 15 16 18 14 16 15 18
43 36 33 31 28 31 31 32 33 30 29 23 23 24 28 28 29 31 38 37 39 39 45 47 44 39 41 44 45 45 44 45 36 26 21 14 13 14 18 16 15 16 17 14
42 36 33 31 30 30 25 31 30 27 23 22 21 24 26 28 27 32 36 38 40 41 42 40 36 37 40 42 43 43 43 43 30 22 19 13 13 13 19 18 15 13 13 10
42 48 32 34 37 37 27 28 24 21 19 18 18 21 25 30 33 36 36 38 39 37 36 34 35 37 40 40 41 41 41 42 26 17 17 15 13 14 15 12 12 13 13 11
35 35 38 35 35 28 26 20 19 22 18 18 24 25 24 27 28 32 36 37 35 34 33 33 34 36 38 38 40 41 40 38 18 10 12 14 15 12 9 9 11 11 14 15
31 35 33 33 29 30 22 17 19 21 24 23 22 24 27 29 31 32 31 33 33 31 31 32 34 35 36 37 39 40 43 29 12 3 14 12 11 9 7 9 9 5 17 17
24 28 29 31 31 28 21 18 18 20 20 21 24 26 28 27 25 25 26 28 28 27 30 31 32 32 35 36 39 39 42 20 11 3 4 7 7 8 9 8 9 12 14 8
25 29 26 27 24 23 25 24 19 18 19 22 23 24 24 21 21 23 24 25 24 26 29 30 29 32 35 35 38 38 34 13 8 4 5 4 5 8 6 8 9 11 8 10
Wind_Direction
232 241 245 243 243 246 252 250 241 232 231 224 250 276 286 304 312 307 309 310 316 318 324 320 316 316 318 319 317 314 301 304 298 287 286 284 281 279 280 282 281 278 276 275
236 243 250 248 249 245 246 249 249 246 249 243 253 271 285 291 294 298 305 307 311 320 325 322 323 322 323 322 316 313 305 299 297 292 283 281 282 282 281 283 284 284 283 279
236 242 252 255 252 249 246 250 251 258 263 254 260 266 277 284 291 297 304 305 307 319 317 318 323 326 324 322 318 313 309 305 301 295 292 288 288 288 287 282 279 279 280 279
235 238 253 251 246 246 247 249 252 257 259 261 269 270 275 280 289 291 299 303 311 314 315 321 324 324 324 321 313 314 313 311 305 300 294 294 293 292 291 289 287 283 279 278
237 237 243 245 246 250 250 250 250 256 265 272 278 278 280 285 289 289 297 303 307 313 317 319 319 323 321 315 314 316 312 308 306 304 304 303 301 299 298 297 295 293 289 285
242 240 247 248 248 252 256 257 261 260 261 262 263 272 277 284 290 294 297 298 304 310 313 311 319 314 313 317 317 312 308 306 307 308 306 304 304 303 301 299 296 294 293 289
244 244 249 254 255 256 259 260 262 260 262 265 266 271 281 287 292 294 297 301 307 305 306 313 312 320 319 314 313 312 309 309 309 308 305 304 304 303 301 300 299 298 292 289
243 247 249 254 259 261 264 264 261 262 264 264 265 274 283 290 294 299 298 298 299 300 307 312 320 317 306 310 315 318 318 314 311 307 303 301 302 301 301 303 303 301 297 290
244 244 246 253 258 262 264 265 264 265 268 270 273 279 286 294 294 288 289 294 299 302 314 316 312 311 315 318 317 318 321 320 313 307 302 302 302 302 304 304 301 300 296 294
242 249 245 249 254 262 263 266 273 274 276 276 277 281 289 291 287 288 296 302 304 310 311 309 301 302 320 319 316 319 320 319 316 312 309 305 304 305 304 303 303 301 302 296
246 252 253 256 259 262 268 271 268 268 273 278 278 283 289 287 285 290 297 299 304 309 307 304 304 308 317 318 317 322 321 316 314 314 311 308 305 303 303 304 304 305 301 305
253 258 263 256 258 259 267 269 273 276 278 280 288 286 283 280 283 288 294 300 303 312 314 311 313 316 320 320 322 321 317 315 315 313 309 308 308 308 307 309 310 304 307 305
258 262 266 262 262 265 265 269 273 278 282 285 284 291 292 289 287 292 300 302 313 314 315 311 313 320 323 320 320 317 317 319 317 316 315 313 309 310 312 312 309 304 305 300
253 258 262 269 267 272 275 274 271 273 277 281 284 287 292 289 289 300 303 311 306 311 319 313 315 321 320 318 318 318 322 320 319 317 314 311 312 315 316 319 315 315 306 297
256 263 267 270 271 269 267 271 274 277 278 277 279 281 284 289 298 303 304 308 308 306 310 315 318 317 316 321 319 322 322 321 319 317 314 313 314 314 320 324 327 322 312 303
255 259 264 269 271 269 270 270 269 270 271 274 277 281 289 299 302 299 296 304 308 311 314 313 318 323 324 321 321 323 325 325 323 321 315 314 319 323 333 329 331 332 331 333
261 263 266 267 265 265 266 267 268 266 270 274 278 286 289 292 292 294 297 301 302 304 310 315 319 323 321 320 323 326 328 329 332 336 338 339 335 341 343 337 346 0 10 8
256 263 266 266 261 266 268 265 267 265 265 267 273 279 284 289 291 297 300 298 302 307 312 316 324 323 320 321 326 329 331 334 337 336 344 346 343 350 349 4 3 358 27 19
249 259 265 266 269 275 273 272 278 271 270 272 275 281 288 287 285 294 303 301 297 305 316 323 322 320 319 325 329 330 333 336 338 341 340 345 7 358 356 17 13 16 5 358
249 262 267 266 265 267 267 269 275 262 261 269 278 280 277 284 291 293 307 310 307 306 316 318 316 319 324 328 330 331 335 336 338 343 347 341 345 6 355 360 352 351 3 3
247 258 261 255 266 277 259 270 261 260 274 271 274 277 281 279 284 301 310 312 311 311 312 315 320 323 326 329 330 332 335 339 338 343 345 339 338 333 348 349 4 14 7 24
251 250 257 261 262 276 255 245 258 258 254 262 266 274 286 282 285 298 303 306 309 314 316 321 324 327 326 330 332 333 335 336 336 334 348 12 356 355 355 10 28 21 30 44
240 244 255 256 258 246 239 237 242 245 252 266 263 278 282 289 292 300 306 308 313 319 322 325 328 327 328 331 333 334 336 334 335 339 346 0 358 352 360 40 42 47 53 65
245 246 251 243 235 240 232 243 256 256 261 269 273 279 286 293 298 300 303 308 315 321 326 326 331 328 331 333 334 338 340 341 345 328 14 10 22 30 36 67 47 66 24 51
232 230 219 223 230 242 240 250 261 254 263 262 269 275 281 288 293 302 312 317 320 326 328 330 332 335 335 336 338 343 341 344 352 357 2 49 45 37 56 49 28 25 23 48
226 215 229 225 230 231 233 253 262 262 261 264 272 277 280 292 308 313 315 316 322 326 328 334 335 339 337 339 341 345 346 358 22 71 88 63 46 49 36 26 22 2 60 113
Height
5851 5853 5853 5853 5853 5852 5852 5852 5853 5854 5855 5855 5854 5852 5851 5850 5849 5848 5846 5844 5841 5839 5836 5833 5830 5826 5821 5816 5809 5803 5798 5793 5788 5784 5780 5777 5774 5771 5768 5766 5764 5762 5760 5757
5848 5848 5849 5849 5849 5849 5849 5849 5850 5851 5851 5851 5849 5848 5846 5845 5845 5844 5842 5839 5834 5831 5829 5825 5822 5818 5813 5808 5803 5796 5790 5785 5779 5774 5770 5765 5763 5760 5758 5756 5752 5749 5747 5745
5844 5845 5845 5845 5845 5845 5846 5847 5846 5847 5846 5845 5845 5844 5842 5841 5840 5838 5837 5834 5830 5827 5824 5820 5815 5811 5806 5801 5795 5788 5781 5776 5770 5766 5761 5757 5753 5750 5748 5746 5743 5739 5734 5731
5840 5840 5840 5841 5842 5842 5842 5843 5841 5841 5841 5841 5840 5840 5838 5836 5836 5835 5832 5829 5824 5821 5817 5812 5809 5805 5800 5794 5787 5779 5773 5767 5762 5758 5753 5749 5746 5742 5738 5734 5732 5728 5724 5721
5835 5835 5836 5837 5838 5837 5837 5837 5837 5836 5836 5836 5835 5832 5834 5833 5832 5831 5828 5824 5818 5813 5809 5806 5804 5800 5795 5788 5779 5771 5764 5758 5754 5749 5745 5741 5737 5732 5728 5724 5721 5717 5713 5708
5829 5831 5831 5833 5833 5833 5832 5833 5833 5833 5832 5832 5830 5828 5829 5829 5827 5825 5822 5817 5813 5808 5804 5801 5798 5795 5789 5779 5772 5766 5757 5750 5746 5741 5737 5731 5726 5721 5717 5713 5708 5704 5699 5695
5823 5826 5828 5828 5829 5829 5828 5828 5828 5828 5827 5829 5825 5823 5823 5823 5822 5819 5816 5811 5807 5803 5799 5797 5793 5785 5777 5772 5765 5757 5750 5744 5739 5733 5728 5722 5715 5710 5704 5699 5694 5689 5684 5680
5819 5821 5823 5823 5823 5824 5822 5823 5824 5821 5821 5821 5820 5818 5819 5818 5815 5812 5809 5806 5802 5798 5796 5791 5784 5777 5771 5764 5756 5749 5742 5736 5730 5725 5718 5711 5705 5698 5691 5684 5677 5671 5665 5660
5813 5814 5816 5817 5817 5818 5816 5817 5818 5817 5816 5815 5815 5814 5813 5812 5809 5805 5803 5801 5796 5791 5786 5781 5777 5770 5763 5757 5748 5741 5734 5727 5720 5713 5705 5699 5692 5684 5675 5668 5661 5652 5644 5637
5807 5808 5810 5811 5811 5812 5810 5812 5811 5811 5809 5810 5809 5808 5808 5805 5800 5797 5796 5792 5788 5785 5780 5775 5769 5762 5756 5749 5740 5733 5725 5716 5708 5700 5693 5685 5676 5668 5660 5651 5642 5631 5622 5611
5801 5802 5804 5804 5806 5803 5802 5802 5804 5804 5803 5802 5802 5804 5802 5797 5792 5791 5789 5785 5783 5780 5776 5769 5761 5754 5749 5741 5732 5723 5715 5705 5696 5688 5679 5671 5662 5654 5644 5633 5622 5611 5603 5594
5795 5795 5796 5800 5798 5797 5795 5795 5794 5794 5797 5794 5795 5797 5797 5791 5787 5785 5783 5779 5776 5773 5766 5759 5752 5747 5740 5731 5722 5714 5705 5696 5686 5676 5668 5659 5649 5639 5628 5617 5606 5598 5591 5584
5789 5788 5790 5791 5794 5792 5790 5790 5789 5789 5789 5788 5786 5788 5785 5784 5781 5778 5775 5770 5768 5763 5756 5750 5744 5739 5731 5723 5715 5706 5695 5685 5675 5665 5655 5647 5636 5626 5615 5604 5596 5588 5582 5577
5781 5782 5784 5785 5785 5786 5784 5783 5783 5783 5783 5780 5779 5778 5778 5775 5774 5772 5767 5764 5759 5753 5748 5743 5738 5731 5724 5715 5707 5696 5685 5674 5664 5655 5645 5634 5624 5615 5605 5596 5587 5580 5574 5569
5773 5775 5776 5777 5778 5779 5777 5775 5775 5774 5774 5772 5772 5771 5771 5769 5767 5763 5760 5756 5752 5747 5742 5736 5732 5725 5717 5708 5698 5687 5676 5665 5654 5643 5633 5622 5613 5605 5598 5590 5583 5575 5569 5565
5764 5766 5768 5770 5770 5768 5768 5769 5768 5767 5764 5763 5763 5764 5764 5763 5759 5755 5753 5750 5748 5742 5737 5731 5724 5717 5709 5699 5690 5679 5668 5657 5645 5632 5620 5610 5605 5600 5594 5588 5581 5574 5568 5563
5755 5756 5759 5760 5761 5759 5761 5762 5761 5758 5757 5758 5757 5759 5758 5755 5751 5749 5746 5744 5739 5733 5728 5723 5717 5708 5700 5691 5682 5671 5661 5649 5636 5622 5611 5606 5601 5598 5593 5586 5581 5576 5570 5565
5745 5748 5750 5751 5752 5752 5754 5753 5753 5752 5750 5751 5752 5753 5753 5749 5745 5743 5740 5735 5730 5726 5721 5716 5709 5701 5693 5684 5674 5664 5653 5643 5631 5622 5613 5606 5601 5598 5593 5588 5583 5578 5573 5569
5735 5738 5740 5742 5744 5745 5744 5744 5745 5743 5743 5744 5748 5748 5746 5741 5738 5736 5734 5729 5724 5719 5714 5709 5701 5695 5687 5678 5667 5658 5648 5638 5628 5619 5612 5607 5603 5598 5595 5590 5585 5581 5577 5572
5726 5728 5732 5733 5736 5735 5737 5737 5736 5735 5736 5741 5741 5739 5735 5734 5732 5729 5725 5720 5716 5712 5709 5703 5697 5689 5680 5670 5662 5653 5644 5634 5625 5617 5612 5608 5603 5600 5596 5591 5586 5582 5578 5574
5715 5719 5722 5724 5725 5727 5729 5728 5729 5732 5738 5734 5734 5733 5730 5729 5727 5724 5719 5715 5711 5708 5703 5697 5690 5682 5673 5664 5656 5648 5640 5630 5622 5616 5612 5608 5604 5601 5597 5593 5588 5584 5580 5577
5706 5709 5713 5716 5718 5719 5722 5722 5725 5727 5727 5728 5727 5726 5724 5722 5720 5718 5714 5710 5706 5702 5696 5690 5683 5675 5667 5659 5652 5644 5635 5627 5620 5615 5612 5607 5605 5602 5598 5594 5591 5588 5584 5580
5699 5701 5706 5710 5711 5714 5716 5718 5720 5722 5723 5723 5722 5722 5719 5717 5715 5712 5709 5704 5700 5695 5690 5684 5678 5670 5662 5655 5648 5640 5631 5622 5616 5614 5611 5608 5605 5603 5600 5597 5594 5592 5589 5586
5689 5694 5697 5701 5705 5707 5711 5714 5715 5716 5716 5716 5716 5715 5713 5711 5710 5707 5703 5698 5694 5690 5685 5680 5673 5666 5659 5652 5645 5637 5627 5617 5614 5613 5611 5609 5607 5605 5602 5600 5598 5595 5594 5592
5683 5687 5690 5694 5697 5701 5705 5707 5709 5710 5711 5711 5710 5709 5707 5707 5705 5702 5698 5694 5690 5686 5681 5676 5670 5663 5656 5649 5642 5634 5624 5617 5614 5612 5613 5611 5609 5607 5605 5604 5601 5599 5597 5596
5677 5681 5685 5689 5692 5695 5697 5701 5702 5703 5704 5704 5704 5702 5702 5701 5698 5696 5693 5690 5686 5682 5678 5673 5667 5661 5654 5648 5640 5632 5622 5617 5615 5613 5613 5613 5611 5610 5608 5605 5603 5600 5598 5597